Waarnemingen

Advertentie
Mijn weer
Nancy/Essey, Frankrijk (7180): temperatuur & dauwpunt: 16.11.2017 08:00:00 - 22.11.2017 08:00:00 (CET)Nancy/Essey, Frankrijk (7180): temperatuur 5cm: 16.11.2017 08:00:00 - 22.11.2017 08:00:00 (CET)Nancy/Essey, Frankrijk (7180): temperatuur -20cm & temperatuur -100cm: 16.11.2017 08:00:00 - 22.11.2017 08:00:00 (CET)Nancy/Essey, Frankrijk (7180): windsnelheid & windstoten: 16.11.2017 08:00:00 - 22.11.2017 08:00:00 (CET)Nancy/Essey, Frankrijk (7180): windrichting: 16.11.2017 08:00:00 - 22.11.2017 08:00:00 (CET)Nancy/Essey, Frankrijk (7180): luchtdruk: 16.11.2017 08:00:00 - 22.11.2017 08:00:00 (CET)Nancy/Essey, Frankrijk (7180): zicht: 16.11.2017 08:00:00 - 22.11.2017 08:00:00 (CET)Nancy/Essey, Frankrijk (7180): Zonneschijnduur: 16.11.2017 08:00:00 - 22.11.2017 08:00:00 (CET)Nancy/Essey, Frankrijk (7180): neerslag: 16.11.2017 08:00:00 - 22.11.2017 08:00:00 (CET)
Datum & Tijd tt [°C] td [°C] tt 5cm [°C] tt -20cm [°C] tt -100cm [°C] ff [km/u] ff [kn] fx [km/u] fx [kn] dd ppp [hPa] vv [km] sd [min] rr [mm]
22.11.2017 08:00:00 1,8 1,4 -0,8 7,0 10,6 13 7 18 10 ZO 1015,1 6 0 0,0
22.11.2017 07:00:00 2,4 1,5 -1,3 7,0 10,6 6 3 18 10 ZZO 1014,9 5 0 0,0
22.11.2017 06:00:00 1,4 0,8 -1,6 7,0 10,5 8 4 14 8 OZO 1015,5 5 0 0,0
22.11.2017 05:00:00 1,5 0,8 -1,0 7,1 10,6 4 2 10 5 ZZO 1016,2 4,9 0 0,0
22.11.2017 04:00:00 3,4 2,5 0,5 7,1 10,6 5 3 18 10 ZO 1016,2 9 0 0,0
22.11.2017 03:00:00 5,4 4,2 3,7 7,2 10,6 8 4 22 12 ZZW 1016,3 10 0 0,0
22.11.2017 02:00:00 4,6 4,3 1,6 7,2 10,6 7 4 11 6 Z 1016,5 18 0 0,0
22.11.2017 01:00:00 3,2 3,1 -1,3 7,2 10,6 8 4 10 5 Z 1016,9 10 0 0,0
22.11.2017 00:00:00 1,4 1,1 -1,8 7,3 10,6 1 1 4 2 OZO 1017,4 0,2 0 0,0
21.11.2017 23:00:00 1,0 0,4 -1,3 7,4 10,6 0 0 5 3 N 1017,5 0,4 0 0,0
21.11.2017 22:00:00 2,6 2,3 -0,4 7,4 10,6 1 1 5 3 ONO 1017,5 0,2 0 0,0
21.11.2017 21:00:00 3,1 2,7 -0,2 7,4 10,6 0 0 5 3 N 1017,3 5 0 0,0
21.11.2017 20:00:00 3,5 3,1 -0,1 7,4 10,6 4 2 7 4 Z 1017,4 3,1 0 0,0
21.11.2017 19:00:00 4,0 3,4 0,8 7,4 10,6 4 2 9 5 ZZO 1017,9 5 0 0,0
21.11.2017 18:00:00 6,9 5,5 3,3 7,3 10,6 4 2 13 7 - 1017,7 10 0 0,0
21.11.2017 17:00:00 7,8 5,8 6,2 7,2 10,7 9 5 14 8 Z 1017,4 15 0 0,0
21.11.2017 16:00:00 8,6 6,0 8,2 7,2 10,7 8 4 15 8 Z 1017,9 10 0 0,0
21.11.2017 15:00:00 8,8 5,7 8,8 7,1 10,7 8 4 21 12 Z 1018,0 10 1 0,0
21.11.2017 14:00:00 7,9 5,5 8,3 7,1 10,7 15 8 27 15 ZZW 1018,4 10 0 0,0
21.11.2017 13:00:00 7,5 5,3 7,4 7,1 10,7 11 6 26 14 ZZW 1018,8 10 0 0,0
21.11.2017 12:00:00 7,0 5,5 7,3 7,0 10,7 13 7 23 13 ZZW 1019,7 10 0 0,0
21.11.2017 11:00:00 6,6 5,4 6,4 7,0 10,7 13 7 27 15 Z 1020,0 9 0 0,0
21.11.2017 10:00:00 6,2 5,2 6,1 6,9 10,7 18 10 32 17 ZZW 1020,2 8 0 0,0
21.11.2017 09:00:00 6,1 5,1 5,7 7,0 10,7 16 9 29 15 ZZW 1019,9 10 0 0,0
21.11.2017 08:00:00 6,2 5,3 5,6 6,9 10,7 16 9 25 13 Z 1019,5 9 0 0,0
21.11.2017 07:00:00 6,2 5,6 5,8 6,9 10,7 17 9 27 14 Z 1019,5 2,2 0 0,4
21.11.2017 06:00:00 7,0 5,6 6,5 6,9 10,7 8 5 29 16 Z 1019,5 10 0 0,0
21.11.2017 05:00:00 7,5 5,6 6,9 6,9 10,7 16 9 37 20 ZW 1019,2 10 0 0,0
21.11.2017 04:00:00 7,4 5,7 6,8 6,8 10,8 11 6 25 13 ZZW 1019,4 10 0 0,0
21.11.2017 03:00:00 7,4 5,7 6,4 6,8 10,7 13 7 25 14 ZZW 1019,4 33 0 0,0
21.11.2017 02:00:00 7,1 5,6 6,0 6,8 10,8 9 5 30 16 ZZW 1019,7 10 0 0,0
21.11.2017 01:00:00 6,6 5,7 5,6 6,7 10,7 11 6 29 15 Z 1019,7 10 0 0,0
21.11.2017 00:00:00 6,3 5,3 5,3 6,8 10,8 13 7 21 12 Z 1019,8 3,7 0 1,0
20.11.2017 23:00:00 5,9 4,5 4,6 6,7 10,8 14 8 27 14 Z 1019,9 10 0 0,2
20.11.2017 22:00:00 5,3 3,9 4,6 6,7 10,7 11 6 29 16 Z 1020,5 6 0 0,0
20.11.2017 21:00:00 4,8 3,1 4,4 6,7 10,8 16 9 36 19 Z 1020,5 10 0 0,0
20.11.2017 20:00:00 4,7 3,0 4,4 6,7 10,8 13 7 34 18 Z 1020,4 12 0 0,0
20.11.2017 19:00:00 4,7 3,0 4,4 6,7 10,8 19 11 35 19 ZZW 1020,6 11 0 0,0
20.11.2017 18:00:00 5,0 3,3 4,1 6,6 10,8 18 10 32 18 ZZW 1021,0 9 0 0,0
20.11.2017 17:00:00 4,8 3,1 4,0 6,6 10,8 16 9 29 16 Z 1021,3 10 0 0,0
20.11.2017 16:00:00 4,6 3,1 4,2 6,6 10,8 14 8 29 16 Z 1021,5 6 0 0,0
20.11.2017 15:00:00 5,3 2,8 4,8 6,6 10,8 13 7 24 13 Z 1022,0 10 0 0,0
20.11.2017 14:00:00 4,9 2,3 4,8 6,6 10,8 13 7 25 14 Z 1022,8 10 0 0,0
20.11.2017 13:00:00 3,7 1,4 3,3 6,6 10,8 13 7 24 13 Z 1023,5 10 0 0,0
20.11.2017 12:00:00 2,3 0,5 1,8 6,7 10,8 16 9 27 14 Z 1024,5 10 0 0,0
20.11.2017 11:00:00 1,5 0,0 1,4 6,8 10,8 11 6 18 10 Z 1025,9 10 0 0,0
20.11.2017 10:00:00 1,0 -0,3 -0,2 6,9 10,9 8 4 20 11 Z 1025,9 10 0 0,0
20.11.2017 09:00:00 -0,1 -0,8 -1,7 6,9 10,9 11 6 19 10 Z 1025,5 9 0 0,0
20.11.2017 08:00:00 -1,0 -1,6 -3,6 7,0 10,8 8 4 14 8 ZZO 1025,7 6 0 0,0
20.11.2017 07:00:00 -1,7 -2,1 -4,8 7,1 10,8 7 4 10 5 ZO 1025,6 8 0 0,0
20.11.2017 06:00:00 -3,2 -3,6 -6,2 7,2 10,8 4 2 6 3 Z 1025,8 7 0 0,0
20.11.2017 05:00:00 -3,0 -3,8 -5,8 7,2 10,8 0 0 6 3 N 1026,0 5 0 0,0
20.11.2017 04:00:00 -2,6 -3,0 -5,7 7,4 10,8 4 2 9 5 O 1026,0 6 0 0,0
20.11.2017 03:00:00 -2,9 -3,6 -5,9 7,4 10,9 4 2 6 4 - 1026,2 5 0 0,0
20.11.2017 02:00:00 -1,7 -2,3 -5,3 7,6 10,9 2 1 4 2 - 1026,5 7 0 0,0
20.11.2017 01:00:00 -1,3 -2,0 -5,1 7,6 10,9 4 2 5 3 - 1026,8 10 0 0,0
20.11.2017 00:00:00 -0,6 -2,2 -4,5 7,7 10,9 4 2 10 5 - 1026,7 10 0 0,0
19.11.2017 23:00:00 -0,8 -1,9 -3,6 7,7 10,9 8 4 8 5 ZO 1026,7 10 0 0,0
19.11.2017 22:00:00 -0,4 -1,4 -3,6 7,8 10,9 2 1 9 5 - 1026,6 10 0 0,0
19.11.2017 21:00:00 0,5 -1,4 -2,6 7,8 10,8 2 1 9 5 - 1026,3 10 0 0,0
19.11.2017 20:00:00 3,0 0,1 -2,2 7,8 10,9 5 3 10 5 WZW 1025,4 10 0 0,0
19.11.2017 19:00:00 3,0 -1,0 -0,6 7,8 10,9 3 1 12 6 N 1024,9 43 0 0,0
19.11.2017 18:00:00 5,0 -0,4 2,7 7,9 10,9 8 4 19 11 W 1024,1 10 0 0,0
19.11.2017 17:00:00 6,3 0,0 4,4 7,8 10,9 13 7 28 15 W 1023,3 10 19 0,0
19.11.2017 16:00:00 6,9 -0,6 6,0 7,7 10,9 11 6 21 11 WNW 1022,9 60 35 0,0
19.11.2017 15:00:00 7,7 0,4 7,3 7,8 10,9 13 7 20 11 NW 1022,5 58 37 0,0
19.11.2017 14:00:00 6,8 0,7 7,0 7,7 10,9 13 7 24 13 NW 1022,6 10 23 0,0
19.11.2017 13:00:00 7,1 0,7 6,4 7,7 10,9 13 7 25 14 NW 1022,5 10 40 0,0
19.11.2017 12:00:00 7,5 1,1 7,1 7,7 10,9 15 8 29 16 WNW 1022,3 10 40 0,0
19.11.2017 11:00:00 7,0 1,9 8,7 7,7 10,9 17 9 29 16 WNW 1022,2 49 60 0,0
19.11.2017 10:00:00 6,2 4,4 5,5 7,7 10,9 9 5 19 11 WNW 1021,7 10 26 0,0
19.11.2017 09:00:00 5,7 4,2 4,0 7,7 10,9 8 4 15 8 NW 1021,1 10 0 0,0
19.11.2017 08:00:00 5,2 4,2 3,3 7,7 11,0 5 3 16 8 NNW 1020,5 10 0 0,0
19.11.2017 07:00:00 6,0 4,8 5,1 7,8 11,0 9 5 19 10 NW 1019,7 10 0 0,0
19.11.2017 06:00:00 5,9 5,2 5,1 7,7 10,9 9 5 26 14 W 1019,2 10 0 0,0
19.11.2017 05:00:00 5,7 4,7 4,7 7,8 11,0 8 4 31 17 W 1018,8 10 0 0,2
19.11.2017 04:00:00 5,4 4,0 4,5 7,8 11,0 11 6 24 13 ZW 1018,8 10 0 0,4
19.11.2017 03:00:00 5,1 3,8 4,3 7,8 11,0 12 7 25 14 ZW 1019,2 9 0 0,4
19.11.2017 02:00:00 5,0 3,7 4,1 7,8 11,0 13 7 32 18 ZZW 1020,0 10 0 1,6
19.11.2017 01:00:00 4,9 3,6 3,9 7,8 11,0 13 7 27 14 ZW 1020,8 7 0 0,8
19.11.2017 00:00:00 4,6 3,1 3,7 7,8 11,0 13 7 26 14 Z 1021,1 7 0 0,4
18.11.2017 23:00:00 4,6 2,8 3,7 7,9 11,0 11 6 25 14 Z 1022,1 10 0 0,4
18.11.2017 22:00:00 5,0 2,5 3,8 7,8 11,0 11 6 26 14 ZZW 1022,7 10 0 0,2
18.11.2017 21:00:00 5,4 1,3 4,5 7,9 11,0 6 3 16 9 Z 1023,0 29 0 0,0
18.11.2017 20:00:00 5,4 1,3 4,4 7,9 11,0 9 5 22 12 ZZW 1023,2 10 0 0,0
18.11.2017 19:00:00 5,8 1,1 4,9 7,9 11,0 11 6 22 12 ZW 1023,8 10 0 0,0
18.11.2017 18:00:00 6,0 0,9 5,4 7,8 11,0 13 7 21 12 WZW 1023,9 40 0 0,0
18.11.2017 17:00:00 6,2 0,9 5,7 7,8 11,0 9 5 18 10 WZW 1024,0 41 0 0,0
18.11.2017 16:00:00 6,4 0,7 6,1 7,8 11,1 13 7 27 15 ZW 1024,1 10 0 0,0
18.11.2017 15:00:00 6,5 0,4 6,9 7,7 11,0 11 6 24 13 ZW 1024,4 43 8 0,0
18.11.2017 14:00:00 6,7 0,6 6,5 7,7 11,1 13 7 23 13 WZW 1024,6 10 40 0,0
18.11.2017 13:00:00 5,9 1,0 6,8 7,7 11,0 9 5 18 10 - 1025,4 10 32 0,0
18.11.2017 12:00:00 4,7 1,4 4,3 7,7 11,0 8 4 19 10 W 1026,2 10 17 0,0
18.11.2017 11:00:00 3,5 1,5 4,3 7,7 11,1 13 7 21 12 WNW 1026,8 12 0 0,0
18.11.2017 10:00:00 3,8 2,0 3,4 7,7 11,0 5 3 20 11 WZW 1026,2 10 0 0,0
18.11.2017 09:00:00 3,3 1,5 2,5 7,8 11,1 11 6 19 10 WNW 1026,0 12 0 0,0
18.11.2017 08:00:00 3,3 1,5 2,0 7,8 11,1 8 4 15 8 W 1025,7 10 0 0,0
18.11.2017 07:00:00 3,6 2,4 2,2 7,8 11,1 8 4 15 8 WNW 1025,6 9 0 0,0
18.11.2017 06:00:00 4,3 3,0 2,9 7,8 11,1 6 4 16 8 NW 1025,5 8 0 0,0
18.11.2017 05:00:00 5,5 4,3 4,5 7,8 11,1 2 1 5 3 - 1025,3 7 0 0,0
18.11.2017 04:00:00 5,8 4,3 5,1 7,8 11,1 1 1 10 5 NW 1025,5 9 0 0,0
18.11.2017 03:00:00 6,1 4,3 5,8 7,7 11,1 8 4 15 8 WNW 1026,0 12 0 0,0
18.11.2017 02:00:00 6,0 4,8 5,7 7,7 11,1 4 2 7 4 - 1026,0 10 0 0,0
18.11.2017 01:00:00 6,0 4,8 5,8 7,7 11,1 5 3 13 7 NW 1026,2 9 0 0,0
18.11.2017 00:00:00 6,0 5,1 5,8 7,7 11,1 5 3 10 5 NW 1026,4 8 0 0,0
17.11.2017 23:00:00 6,1 5,5 5,8 7,7 11,1 4 2 6 4 - 1026,7 5 0 0,0
17.11.2017 22:00:00 6,0 5,4 5,6 7,7 11,2 4 2 9 5 NNW 1027,0 5 0 0,0
17.11.2017 21:00:00 5,8 5,2 5,4 7,7 11,2 2 1 5 3 - 1026,9 4,2 0 0,0
17.11.2017 20:00:00 5,8 5,2 5,5 7,6 11,2 0 0 3 2 NO 1027,0 2,4 0 0,0
17.11.2017 19:00:00 5,8 5,1 5,6 7,6 11,2 2 1 6 3 ZZO 1026,7 5 0 0,0
17.11.2017 18:00:00 5,7 5,0 5,6 7,5 11,2 4 2 9 5 - 1027,0 6 0 0,0
17.11.2017 17:00:00 5,8 5,1 5,7 7,5 11,2 7 4 17 9 ONO 1027,0 5 0 0,0
17.11.2017 16:00:00 5,9 5,0 6,0 7,4 11,2 11 6 18 10 NO 1027,3 8 0 0,0
17.11.2017 15:00:00 5,7 4,8 6,2 7,4 11,2 8 4 14 8 NO 1027,2 6 0 0,0
17.11.2017 14:00:00 5,5 4,6 6,5 7,3 11,3 4 2 10 6 - 1027,2 6 0 0,0
17.11.2017 13:00:00 4,8 4,2 6,3 7,2 11,2 6 4 12 7 NO 1027,7 6 0 0,0
17.11.2017 12:00:00 4,1 3,7 5,3 7,2 11,3 8 4 14 8 ONO 1028,2 5 0 0,0
17.11.2017 11:00:00 3,9 3,6 4,6 7,2 11,3 8 4 15 8 NNO 1028,3 1,6 0 0,0
17.11.2017 10:00:00 3,4 2,8 3,4 7,2 11,3 4 2 7 4 - 1028,2 1,5 0 0,0
17.11.2017 09:00:00 2,7 2,1 2,6 7,2 11,3 0 0 4 2 N 1028,2 4,6 0 0,0
17.11.2017 08:00:00 2,5 2,1 2,1 7,2 11,3 0 0 5 3 N 1027,9 4,0 0 0,0
17.11.2017 07:00:00 2,1 1,7 2,0 7,2 11,3 0 0 6 4 N 1027,7 4,3 0 0,0
17.11.2017 06:00:00 2,0 1,6 1,8 7,3 11,3 2 1 7 4 - 1027,6 3,0 0 0,4
17.11.2017 05:00:00 1,8 1,4 1,7 7,3 11,3 1 0 8 5 WNW 1027,6 2,4 0 0,0
17.11.2017 04:00:00 1,7 1,3 1,5 7,3 11,3 2 1 9 5 - 1027,6 3,9 0 0,0
17.11.2017 03:00:00 1,6 1,2 1,5 7,3 11,3 4 2 14 8 - 1027,3 3,4 0 0,0
17.11.2017 02:00:00 1,7 1,3 1,7 7,3 11,3 1 1 11 6 O 1027,6 2,6 0 0,0
17.11.2017 01:00:00 1,6 1,2 1,6 7,3 11,3 4 2 9 5 - 1027,7 4,3 0 0,0
17.11.2017 00:00:00 1,6 1,2 1,7 7,3 11,4 4 2 8 4 - 1027,7 3,3 0 0,0
16.11.2017 23:00:00 1,8 1,5 1,8 7,3 11,4 5 3 12 6 - 1027,7 3,0 0 0,0
16.11.2017 22:00:00 2,0 1,6 2,0 7,3 11,4 9 5 12 7 ZO 1027,3 1,9 0 0,0
16.11.2017 21:00:00 2,1 1,7 2,0 7,3 11,4 5 3 10 6 OZO 1027,4 3,2 0 0,0
16.11.2017 20:00:00 2,1 1,7 2,1 7,3 11,4 5 3 12 6 OZO 1027,1 3,0 0 0,0
16.11.2017 19:00:00 2,0 1,6 2,0 7,3 11,4 2 1 11 6 ONO 1026,6 2,2 0 0,0
16.11.2017 18:00:00 2,0 1,6 2,1 7,2 11,4 8 4 10 6 O 1026,4 4,2 0 0,0
16.11.2017 17:00:00 2,3 1,9 2,3 7,2 11,4 8 4 11 6 O 1026,0 4,6 0 0,0
16.11.2017 16:00:00 2,3 1,9 2,6 7,2 11,4 6 3 13 7 O 1026,0 4,1 0 0,0
16.11.2017 15:00:00 2,2 1,6 2,7 7,2 11,4 3 1 9 5 ONO 1026,0 4,8 0 0,0
16.11.2017 14:00:00 2,2 1,8 2,9 7,2 11,4 2 1 11 6 N 1025,9 3,5 0 0,0
16.11.2017 13:00:00 2,1 1,8 2,9 7,2 11,4 8 4 13 7 O 1026,0 2,6 0 0,0
16.11.2017 12:00:00 1,5 1,2 1,9 7,2 11,4 5 3 15 8 - 1026,5 2,8 0 0,0
16.11.2017 11:00:00 1,2 1,1 1,4 7,3 11,4 4 2 11 6 - 1026,8 2,9 0 0,0
16.11.2017 10:00:00 0,8 0,7 0,3 7,3 11,4 5 3 15 8 - 1025,9 1,9 0 0,0
16.11.2017 09:00:00 0,2 0,1 -0,1 7,4 11,5 8 4 15 8 ONO 1026,3 2,0 0 0,0
16.11.2017 08:00:00 0,1 0,0 -0,4 7,5 11,5 9 5 19 10 NO 1025,8 2,0 0 0,0

tt = temperatuur
td = dauwpunt
tt 5cm = temperatuur 5cm
tt -20cm = temperatuur -20cm
tt -100cm = temperatuur -100cm
ff = windsnelheid
fx = windstoten
dd = windrichting
ppp = luchtdruk
vv = zicht
sd = Zonneschijnduur
rr = neerslag

Weerstations in de omgeving